Location: ????????
(38.4362°N, 22.8767°E)
Time: 18:18:09
(UTC+00:00)

ACS3 Solar Sail - Pass Details

Date: 24 June 2024
Orbit: 992 x 1023 km, 97.4° (Epoch: 14 July)

Event Time Altitude Azimuth Distance (km) Brightness Sun altitude
Exits shadow 18:54:33 12° 120° (ESE) 2,625 6.4 -10.0°
Maximum altitude 18:59:14 28° 67° (ENE) 1,779 6.0 -10.7°
Drops below altitude 10° 19:04:21 10° 11° (NNE) 2,765 7.6 -11.5°
Sets 19:07:10 0° 1° (N) 3,716 8.5 -11.9°
